GW3084 Weather Reports


Display with metric or nautical units.
time (UTC)temp
F
wind
direction
speed
MPH
gust
MPH
rain 1hr
in
rain 24hr
in
rain mn
in
humidity
%
barometer
mb
20260502152024 53 333 4.0 10.0 0.00 0.00 0.00 37 1019.0
20260502151041 54 347 2.0 10.0 0.00 0.00 0.00 39 1019.1
20260502123027 42 272 3.0 9.0 0.00 0.02 0.00 64 1019.5
20260502122024 41 278 2.0 6.0 0.00 0.02 0.00 67 1019.5
20260502121100 38 287 2.0 6.0 0.00 0.02 0.00 73 1019.4
20260502115136 35 291 1.0 3.0 0.00 0.02 0.00 78 1019.4
20260502114030 34 290 1.0 6.0 0.00 0.02 0.00 79 1019.3
20260502113026 33 286 2.0 3.0 0.00 0.02 0.00 81 1019.3
20260502112022 32 283 1.0 3.0 0.00 0.02 0.00 83 1019.1
20260502111019 32 283 1.0 3.0 0.00 0.02 0.00 83 1019.1
20260502110054 32 283 1.0 3.0 0.00 0.02 0.00 83 1019.1
20260502105031 32 285 1.0 3.0 0.00 0.02 0.00 83 1019.1
20260502104027 32 282 1.0 4.0 0.00 0.02 0.00 83 1019.1
20260502103044 32 280 1.0 3.0 0.00 0.02 0.00 83 1019.0
20260502102020 32 281 1.0 4.0 0.00 0.02 0.00 84 1019.0
20260502101016 32 276 2.0 4.0 0.00 0.02 0.00 84 1019.0
20260502091017 32 276 2.0 4.0 0.00 0.02 0.00 88 1019.0
20260502071035 34 277 1.0 3.0 0.00 0.02 0.00 86 1019.0
20260502070033 34 273 2.0 3.0 0.00 0.02 0.00 85 1019.0
20260502065028 34 273 1.0 3.0 0.00 0.02 0.00 85 1019.2
20260502064025 33 273 1.0 2.0 0.00 0.02 0.00 85 1019.3
20260502063023 33 266 0.0 1.0 0.00 0.02 0.00 84 1019.3
20260502062018 33 266 0.0 2.0 0.00 0.02 0.00 84 1019.1
20260502061034 33 269 0.0 1.0 0.00 0.02 0.00 84 1019.2
20260502060031 33 0.0 0.0 0.00 0.02 0.00 83 1019.2
20260502055028 33 0.0 0.0 0.00 0.02 0.00 83 1019.1
20260502054024 34 268 0.0 1.0 0.00 0.02 0.00 83 1019.1
20260502053043 34 267 0.0 1.0 0.00 0.02 0.00 84 1019.2
20260502052018 34 263 0.0 1.0 0.00 0.02 0.00 83 1019.3
20260502051036 34 0.0 0.0 0.00 0.02 0.00 83 1019.3
20260502050032 34 0.0 0.0 0.00 0.02 0.00 82 1019.3
20260502045028 34 244 0.0 1.0 0.00 0.02 0.02 81 1019.4
20260502044025 34 0.0 0.0 0.00 0.02 0.02 79 1019.4
20260502043023 34 0.0 0.0 0.00 0.02 0.02 77 1019.3
20260502042018 35 0.0 0.0 0.00 0.02 0.02 77 1019.4
20260502041035 35 239 0.0 1.0 0.00 0.02 0.02 76 1019.4
20260502040031 35 206 0.0 1.0 0.00 0.02 0.02 75 1019.4
20260502035028 36 0.0 0.0 0.00 0.02 0.02 73 1019.2
20260502034045 36 200 0.0 1.0 0.00 0.02 0.02 73 1019.4
20260502033042 37 0.0 0.0 0.00 0.02 0.02 72 1019.4
20260502032038 38 173 0.0 2.0 0.00 0.02 0.02 72 1019.3
20260502031036 38 172 1.0 2.0 0.00 0.02 0.02 73 1019.1
20260502030114 38 128 0.0 3.0 0.00 0.02 0.02 75 1019.4
20260502025028 38 140 1.0 2.0 0.00 0.02 0.02 74 1019.4
20260502024047 38 104 0.0 2.0 0.00 0.02 0.02 74 1019.4
20260502023102 38 110 1.0 4.0 0.00 0.02 0.02 77 1019.5
20260502022018 39 92 1.0 3.0 0.00 0.02 0.02 77 1019.6
20260502021035 39 46 1.0 3.0 0.00 0.02 0.02 77 1019.5
20260502020031 39 94 1.0 4.0 0.00 0.02 0.02 73 1019.3
20260502015028 40 0.0 0.0 0.00 0.02 0.02 69 1019.1
20260502014024 40 215 0.0 1.0 0.00 0.02 0.02 69 1019.0
20260502013023 40 145 0.0 2.0 0.00 0.02 0.02 70 1019.0
20260502012018 40 163 0.0 2.0 0.00 0.02 0.02 69 1018.8
20260502011035 40 159 0.0 2.0 0.00 0.02 0.02 69 1018.9
20260502010112 40 143 0.0 1.0 0.00 0.02 0.02 68 1018.8
20260502005028 40 138 0.0 2.0 0.00 0.02 0.02 67 1018.7
20260502004105 41 194 0.0 2.0 0.00 0.02 0.02 65 1018.5
20260502003021 41 263 0.0 3.0 0.00 0.02 0.02 65 1018.5
20260502002038 41 265 1.0 3.0 0.00 0.02 0.02 65 1018.4
20260502001055 41 272 1.0 4.0 0.00 0.02 0.02 65 1018.4
20260502000032 41 244 1.0 2.0 0.00 0.02 0.02 66 1018.4
20260501235028 41 238 1.0 2.0 0.00 0.02 0.02 66 1018.4
20260501234025 41 197 1.0 3.0 0.00 0.02 0.02 66 1018.4
20260501233042 41 224 1.0 4.0 0.00 0.02 0.02 67 1018.4
20260501232018 41 183 1.0 6.0 0.00 0.02 0.02 68 1018.3
20260501231035 41 190 1.0 7.0 0.00 0.02 0.02 69 1018.4
20260501230031 41 161 1.0 3.0 0.00 0.02 0.02 70 1018.5
20260501225028 41 161 2.0 6.0 0.00 0.02 0.02 70 1018.5
20260501224025 41 153 2.0 6.0 0.00 0.02 0.02 69 1018.5
20260501223021 41 163 2.0 4.0 0.00 0.02 0.02 68 1018.4
20260501222018 41 142 2.0 6.0 0.00 0.02 0.02 67 1018.4
20260501221035 42 140 2.0 6.0 0.00 0.02 0.02 64 1018.3
20260501220031 43 135 3.0 7.0 0.00 0.02 0.02 64 1018.3
20260501215028 43 163 2.0 6.0 0.00 0.02 0.02 64 1018.2
20260501214025 42 151 2.0 7.0 0.00 0.02 0.02 64 1018.2
20260501213022 42 148 2.0 7.0 0.00 0.02 0.02 65 1018.3
20260501212038 41 137 2.0 7.0 0.00 0.02 0.02 66 1018.1
20260501211035 41 157 2.0 6.0 0.00 0.02 0.02 70 1018.2
20260501210032 40 141 1.0 4.0 0.00 0.02 0.02 70 1018.3
20260501205028 40 127 1.0 4.0 0.00 0.02 0.02 71 1018.1
20260501204025 41 118 2.0 6.0 0.00 0.02 0.02 70 1018.2
20260501203022 41 129 2.0 4.0 0.00 0.02 0.02 69 1018.3
20260501202019 41 116 2.0 4.0 0.00 0.02 0.02 69 1018.2
20260501201034 41 125 2.0 4.0 0.00 0.02 0.02 68 1018.3
20260501200031 41 104 3.0 8.0 0.00 0.02 0.02 68 1018.2
20260501195028 42 113 3.0 8.0 0.00 0.02 0.02 68 1018.1
20260501194024 42 121 2.0 6.0 0.00 0.02 0.02 67 1018.0
20260501193022 42 106 2.0 6.0 0.00 0.02 0.02 68 1018.0
20260501192018 43 118 2.0 6.0 0.00 0.02 0.02 66 1018.0
20260501191034 43 98 2.0 6.0 0.00 0.02 0.02 63 1018.0
20260501190031 44 84 2.0 6.0 0.00 0.02 0.02 64 1018.0
20260501185028 43 101 2.0 6.0 0.00 0.02 0.02 64 1017.8
20260501184024 43 91 1.0 6.0 0.00 0.02 0.02 63 1017.8
20260501183022 44 97 2.0 6.0 0.00 0.02 0.02 63 1017.9
20260501182019 42 112 1.0 4.0 0.00 0.02 0.02 67 1017.8
20260501181035 41 88 1.0 4.0 0.00 0.02 0.02 67 1017.8
20260501180051 40 87 1.0 4.0 0.00 0.02 0.02 66 1017.8
20260501175027 41 59 2.0 6.0 0.00 0.02 0.02 66 1017.9
20260501174024 41 25 2.0 6.0 0.00 0.02 0.02 68 1017.8
20260501173022 40 50 1.0 4.0 0.00 0.02 0.02 70 1017.8
20260501172017 39 89 1.0 3.0 0.00 0.02 0.02 70 1017.9
20260501171033 40 50 1.0 4.0 0.00 0.02 0.02 68 1017.9
20260501170030 40 62 1.0 4.0 0.00 0.02 0.02 68 1018.0
20260501165047 40 48 1.0 4.0 0.00 0.02 0.02 69 1018.0
20260501164025 39 96 1.0 7.0 0.00 0.02 0.02 71 1018.0
20260501163020 40 68 1.0 6.0 0.00 0.02 0.02 73 1017.9
20260501162016 40 50 1.0 6.0 0.00 0.02 0.02 73 1017.9
20260501161033 40 42 2.0 4.0 0.00 0.02 0.02 73 1018.0
20260501160030 40 26 1.0 7.0 0.00 0.02 0.02 73 1017.9
20260501155048 41 46 2.0 10.0 0.00 0.02 0.02 73 1017.9
20260501154023 42 48 3.0 9.0 0.00 0.02 0.02 70 1017.8
20260501153020 44 57 2.0 7.0 0.00 0.02 0.02 68 1017.9